カタログに戻る

SL-14 DEB

運用中PO
NORAD 18680·DEBRIS·🇷🇺 Russia

打ち上げ Dec 18, 1986 から Plesetsk Cosmodrome

Loading…

次のパス (今後24時間)

TLE

最新Source: Space-Track

元期: Sep 14, 2026, 12:17 UTC

1 18680U 86101L   26257.51225178  .00000627  00000-0  34260-3 0  9995
2 18680  82.5445 283.8774 0012630 290.1275  69.8541 14.10660727 29750

AllMySatでSL-14 DEBをリアルタイム追跡

Download on the App Store